Вернуться в каталог

STARLINK-34056

АктивенСвязьVLEO
NORAD 63841·PAYLOAD·🇺🇸 United States

Запущен May 7, 2025 с Cape Canaveral Space Force Station

Loading…

Ближайшие Пролёты (ближайшие 24 часа)

TLE

СвежийSource: CelesTrak SupGP

Эпоха: Sep 15, 2026, 02:48 UTC

1 63841C 25093F   26258.11715278  .00012008  00000+0  43577-3 0  2583
2 63841  43.0009  88.3287 0001717 260.4972 334.8763 15.27508017    13

Отслеживайте STARLINK-34056 в реальном времени с AllMySat

Download on the App Store